Wind_Speed
37 35 35 35 35 36 34 33 31 32 32 32 33 34 35 35 34 32 31 31 29 27 27 27 25 22 19 17 17 17 19 22 22 22 22 21 19 18 17 14 11 13 15 17 17 17 16 15 15 13 13 15 16 18 18 18 19 19 19 20 21 24 27 29 26 18 17 19 19 17 15 14 15 15 16 18 20 20 20 19 18 20 21 21 20 20
37 37 36 36 36 35 35 34 33 32 33 33 34 35 34 33 32 31 32 32 30 28 28 28 24 19 15 14 17 21 24 24 22 21 21 21 20 18 16 15 14 16 18 18 19 19 18 18 19 16 14 15 16 16 18 19 20 22 23 25 27 28 29 31 27 20 19 21 21 20 18 17 16 16 16 16 17 19 20 19 17 18 20 20 20 20
38 37 34 33 33 34 34 32 31 32 33 34 35 34 32 30 30 30 30 30 30 29 29 27 23 19 15 15 19 24 25 25 21 19 21 21 20 20 19 18 18 20 21 20 20 21 19 19 21 21 17 17 18 17 17 18 20 22 24 26 28 29 30 30 26 22 21 22 23 23 22 20 18 17 17 16 16 18 19 18 18 19 21 21 20 20
36 32 30 31 33 34 34 32 31 32 34 34 34 33 29 28 28 29 29 30 31 30 28 26 24 21 16 16 22 25 23 23 20 19 21 21 21 21 21 19 19 22 22 21 21 20 19 18 20 21 19 18 20 18 16 16 18 20 23 25 26 27 28 27 26 24 22 22 24 25 23 21 20 19 18 17 16 17 20 20 18 18 20 23 22 22
32 29 31 34 36 36 36 34 33 35 35 35 34 31 28 28 29 29 30 32 32 31 29 28 26 23 18 19 24 25 23 21 19 20 22 22 21 21 21 21 21 23 23 22 20 19 17 17 18 21 21 19 19 17 16 16 17 19 21 23 24 26 26 26 27 25 23 23 25 25 23 22 21 21 19 18 17 17 20 21 20 18 18 21 24 23
31 32 35 37 37 37 36 35 35 36 36 36 35 31 29 30 30 30 32 34 33 31 30 29 27 24 22 23 25 26 23 19 17 19 22 22 22 22 22 23 23 24 23 22 21 19 18 18 19 21 22 21 18 16 16 16 18 19 21 23 24 25 25 26 26 26 24 24 26 26 25 23 23 23 22 20 19 19 19 21 22 22 21 20 21 23
34 36 36 36 36 36 36 35 35 36 37 36 34 30 30 31 31 33 34 33 31 29 29 29 27 25 26 26 26 26 24 19 16 18 21 23 22 21 20 21 23 24 23 23 22 21 20 20 21 21 21 20 18 17 17 17 19 20 21 21 22 23 24 24 25 25 24 24 26 26 25 25 24 24 24 22 21 21 21 21 22 24 24 21 19 21
36 36 36 36 36 36 36 36 35 36 36 34 30 29 31 32 32 34 35 33 31 30 30 29 27 27 27 28 27 27 26 23 20 19 21 23 23 20 19 20 22 23 23 23 23 23 22 21 21 20 19 19 19 19 19 20 21 20 20 21 21 23 24 24 24 25 25 24 26 27 25 25 25 24 25 24 22 22 23 22 22 23 24 23 21 21
35 33 34 36 35 35 35 34 35 35 34 32 29 29 31 33 35 36 36 34 32 31 30 30 29 29 29 29 29 28 28 27 25 23 23 24 24 23 22 22 23 24 24 24 24 24 23 22 21 20 20 21 23 24 24 26 26 20 19 22 23 24 25 25 24 25 25 25 26 27 26 25 25 24 25 25 24 23 24 24 23 23 23 24 23 21
33 34 35 36 36 35 33 33 35 35 33 31 30 29 31 34 36 37 37 35 34 33 31 32 32 31 31 32 31 30 30 29 29 28 26 26 26 26 26 26 26 26 26 25 25 25 24 22 22 21 21 23 27 29 29 30 28 20 17 21 23 24 25 25 27 27 25 27 28 28 28 27 26 25 26 27 26 24 25 25 25 23 22 24 23 22
34 35 36 35 35 33 32 33 33 32 32 31 31 31 32 33 35 37 37 36 35 34 33 34 33 32 33 34 34 33 31 31 32 31 29 27 27 27 28 28 26 26 25 25 24 23 23 22 22 21 21 24 27 29 30 28 24 20 20 22 26 28 27 27 30 30 27 27 29 29 30 29 27 27 26 27 27 26 24 25 26 23 21 22 21 22
34 35 34 33 32 32 32 33 32 31 31 31 32 32 33 33 34 37 39 38 37 36 36 36 35 35 36 37 36 34 33 34 34 34 33 31 29 29 29 27 25 26 25 25 24 24 24 22 22 22 23 26 27 28 30 27 24 26 29 29 31 33 32 32 34 34 31 29 30 30 28 26 25 25 24 24 25 26 25 24 25 23 21 21 19 18
33 33 32 31 32 33 33 33 32 31 30 30 32 33 34 35 35 38 41 41 39 38 38 38 37 38 38 38 37 36 35 36 36 36 36 34 32 30 30 27 25 25 25 25 25 25 25 23 23 24 25 27 29 29 30 30 30 35 37 35 33 34 34 33 32 32 32 31 30 28 24 23 24 25 25 23 22 25 25 23 23 23 21 21 20 18
31 31 32 32 33 34 34 33 33 32 31 31 33 34 36 36 37 40 43 43 42 41 40 40 39 39 39 38 38 38 38 38 37 37 36 35 33 31 30 28 26 26 26 25 25 25 25 25 23 24 26 29 30 32 34 33 32 34 36 34 33 33 33 32 31 30 30 31 30 27 25 26 28 27 27 26 25 25 25 22 22 22 21 22 23 22
32 32 33 33 34 35 35 34 32 30 30 30 32 33 34 34 36 39 43 44 44 43 42 41 40 40 41 40 40 40 39 37 35 34 32 32 30 28 27 27 25 25 25 25 24 24 24 25 24 25 28 30 32 35 37 36 33 32 33 32 31 31 30 28 26 27 29 31 31 30 30 31 32 30 28 27 27 26 24 22 23 22 20 22 26 26
33 33 33 33 33 34 32 30 29 27 26 28 31 32 31 31 31 33 39 43 43 43 42 42 42 43 43 43 42 40 36 33 31 30 29 27 26 24 24 24 24 24 24 23 23 23 23 24 25 26 28 31 34 35 37 36 34 32 31 31 30 30 30 26 23 26 32 33 33 33 34 34 33 32 28 26 26 25 23 21 22 22 22 24 27 26
32 32 32 31 31 30 27 24 24 24 25 27 30 30 29 30 29 30 34 38 39 39 39 40 41 42 42 40 38 35 31 29 29 28 27 25 24 23 22 22 22 22 22 22 22 24 25 25 27 28 28 30 32 33 33 32 31 30 30 30 30 30 30 29 27 31 34 33 31 30 32 33 31 31 29 26 24 23 22 21 20 21 22 25 26 26
32 31 31 30 28 26 24 22 21 22 25 26 26 24 26 29 30 31 33 34 34 34 35 36 37 39 39 37 35 32 28 26 26 26 26 25 23 23 22 21 21 21 22 22 22 23 24 25 26 26 27 28 29 30 29 27 26 26 26 27 28 29 30 30 29 31 33 35 32 27 25 27 28 29 28 25 22 22 22 21 20 20 21 24 24 24
33 32 31 30 27 24 24 24 24 24 26 27 25 23 25 28 30 32 34 34 34 33 34 35 35 37 37 35 34 33 30 26 25 24 24 23 22 21 20 20 20 21 21 21 22 22 23 24 24 24 26 27 28 27 25 23 22 21 22 22 21 23 26 26 26 26 28 31 30 26 25 26 27 28 26 23 22 22 22 22 21 20 21 24 24 23
32 33 31 29 28 26 26 27 27 27 27 27 26 26 27 28 29 30 31 32 32 33 34 35 35 35 34 34 34 33 32 28 25 23 21 20 20 20 20 20 20 21 21 22 22 23 24 25 24 24 25 26 25 24 22 21 20 20 20 19 18 19 20 21 23 24 24 26 24 22 25 27 26 24 21 21 22 22 22 23 22 20 21 23 24 24
31 33 32 30 29 28 28 28 28 29 28 25 25 27 30 31 30 29 29 29 29 29 30 33 34 33 33 33 33 31 29 27 24 21 20 20 21 21 21 21 21 21 21 21 22 24 25 26 25 24 23 23 23 23 22 22 21 20 19 17 16 16 17 17 19 20 19 18 17 17 21 25 25 22 18 19 23 23 22 23 22 21 21 23 24 26
31 33 32 31 31 30 29 28 27 28 28 26 25 26 29 32 31 30 29 29 29 27 26 29 30 30 32 32 30 28 27 25 22 21 20 20 20 20 21 21 21 21 22 22 23 25 27 27 25 24 22 22 22 23 23 23 22 21 19 17 15 14 13 14 16 16 15 12 12 14 19 23 23 21 17 18 22 23 23 23 23 22 22 23 25 26
31 32 32 30 32 33 31 27 25 26 28 28 27 26 28 30 31 31 30 28 28 26 26 27 28 30 32 30 28 27 25 23 22 20 19 19 19 20 21 22 22 21 22 22 24 25 25 25 24 23 22 22 22 22 22 21 21 20 20 20 19 17 16 16 18 18 16 14 12 13 17 21 22 20 17 18 20 22 22 22 23 24 23 24 25 27
31 33 33 31 31 33 32 29 26 26 27 28 29 28 28 29 31 31 30 28 27 26 26 26 28 30 31 28 27 26 23 22 21 20 19 20 20 20 20 21 21 20 20 21 22 22 23 22 23 23 22 21 21 21 21 20 20 19 19 19 19 19 20 21 20 19 18 17 15 14 16 19 22 21 18 18 20 22 22 22 23 24 24 24 24 25
31 33 35 33 31 33 34 33 31 29 27 28 29 29 28 29 30 30 30 29 28 28 27 27 28 30 28 28 28 26 24 23 22 20 19 19 18 18 18 19 20 19 19 19 20 21 22 23 24 23 22 21 21 21 21 21 20 20 20 19 19 19 19 19 19 17 18 18 16 15 14 13 16 19 20 21 24 25 24 23 23 24 25 24 22 23
30 32 34 33 32 32 31 31 32 31 29 29 29 29 29 29 30 31 31 30 30 29 29 29 30 29 28 28 28 27 26 25 23 22 20 18 17 16 16 17 18 19 19 21 23 24 25 24 24 23 22 21 21 21 22 22 22 22 22 22 21 19 18 18 17 15 16 17 16 15 14 12 13 16 18 21 24 27 27 25 23 25 26 24 21 21
30 32 34 34 32 31 30 29 30 30 30 30 30 30 29 29 30 31 32 33 32 32 32 32 32 31 30 29 29 28 27 26 25 24 23 22 21 19 18 18 19 20 21 22 24 24 23 23 22 21 21 21 21 21 22 23 23 23 23 23 23 22 20 18 17 15 14 16 16 16 16 16 16 17 17 18 21 24 27 26 24 25 27 25 21 21
29 31 33 34 34 33 33 32 31 30 30 31 32 31 31 31 31 31 33 34 34 34 35 35 34 33 32 31 30 29 28 27 26 26 26 25 24 22 21 21 21 21 21 20 21 21 21 21 22 21 21 21 20 21 21 22 22 22 22 23 23 23 22 21 19 16 14 15 17 18 18 18 19 19 19 18 20 22 24 26 25 25 27 25 22 24
27 28 30 32 33 34 35 34 33 32 31 32 33 32 31 32 32 32 33 35 35 36 36 36 35 36 34 33 31 30 28 27 25 25 26 25 25 24 23 22 23 22 21 21 21 21 21 21 22 22 22 22 21 21 21 21 21 21 20 20 21 21 22 22 21 19 17 16 17 19 20 20 20 20 21 21 20 19 20 24 25 24 26 26 25 27
27 28 29 30 31 33 34 35 35 35 33 33 34 34 33 33 33 33 33 34 35 37 37 36 36 36 34 32 31 29 28 27 25 24 24 25 25 24 22 21 22 21 21 21 21 22 23 23 23 24 24 24 23 22 22 22 22 21 19 18 18 19 20 21 22 21 19 18 18 20 21 21 21 21 21 21 21 19 17 21 23 23 25 27 28 29
27 29 31 30 31 32 33 34 34 35 35 35 35 36 36 35 35 35 35 36 36 37 38 37 37 36 33 31 30 29 29 28 26 25 24 25 25 23 20 20 21 20 20 21 22 23 24 24 25 26 26 26 24 23 23 22 22 22 21 19 17 18 19 20 20 22 21 20 20 21 22 23 23 22 21 22 22 22 21 21 21 22 24 28 30 29
27 28 30 31 33 35 35 35 34 34 34 35 35 36 36 36 35 35 35 35 35 34 35 35 35 35 33 31 31 31 31 30 29 27 26 26 25 24 23 23 23 23 24 25 25 25 26 26 27 27 27 27 26 25 24 24 24 23 22 20 18 17 18 19 20 21 21 21 22 23 24 25 25 24 24 25 25 25 26 25 24 23 24 27 29 28
29 28 28 30 33 36 37 38 37 36 36 36 36 36 36 34 33 33 33 32 31 31 31 33 34 36 35 34 32 32 32 32 32 30 29 27 27 26 26 26 25 26 26 27 27 27 28 28 28 28 28 28 27 27 26 25 25 24 24 22 20 18 18 19 20 21 22 22 23 24 26 26 27 26 26 26 26 27 28 28 27 26 25 27 31 30
28 28 27 28 30 32 34 35 37 37 38 38 34 33 34 35 34 34 32 30 30 29 29 29 30 32 33 33 32 30 29 29 29 29 29 28 27 26 26 25 25 27 28 28 28 29 30 30 30 29 29 29 28 28 27 27 26 26 24 23 22 20 19 19 20 21 22 22 23 25 27 28 28 28 27 27 26 27 29 28 27 28 26 27 32 33
26 26 26 26 28 29 30 31 33 35 37 35 31 29 30 32 33 34 33 31 29 29 28 27 27 27 28 29 29 27 26 26 26 27 28 27 26 26 26 26 26 28 29 29 30 31 31 32 31 31 30 30 30 30 29 29 28 27 26 24 23 23 22 21 21 21 22 23 23 25 27 29 28 27 27 28 27 29 31 29 28 29 27 27 32 34
24 25 25 26 27 28 29 29 30 31 32 32 30 29 28 28 28 29 30 29 28 27 27 27 26 25 24 25 26 25 24 23 24 24 25 26 26 26 27 27 27 29 30 30 31 31 32 32 32 32 32 32 32 32 32 31 30 29 28 26 25 24 24 23 22 22 22 23 23 24 26 29 29 27 27 28 29 31 32 32 30 29 27 28 33 35
23 24 24 26 27 27 27 28 28 28 28 27 27 27 27 27 26 26 26 26 26 26 26 26 26 25 25 25 26 26 26 26 25 25 25 26 26 26 26 27 29 29 30 31 31 30 31 32 33 33 34 34 34 33 33 33 32 30 29 28 27 26 25 25 25 24 22 22 23 23 25 28 29 27 26 28 31 31 31 32 31 30 29 29 33 35
21 22 23 25 26 26 27 28 28 27 26 25 25 25 26 26 26 25 26 25 25 25 25 25 25 25 25 25 26 27 28 28 28 28 28 28 28 27 26 27 30 31 31 31 31 30 30 30 32 34 35 35 34 34 34 34 32 31 29 29 28 28 27 27 27 26 24 23 23 23 24 27 29 27 27 29 32 32 32 33 32 32 31 30 32 36
20 21 23 24 24 26 27 27 27 27 26 26 26 25 25 25 24 24 25 25 25 25 25 25 24 23 22 22 23 24 26 28 28 28 29 29 30 29 28 28 30 32 32 33 33 33 32 31 32 34 35 36 35 35 35 34 33 32 30 29 29 29 29 29 29 29 27 24 24 24 24 25 27 26 26 28 31 32 32 32 32 32 32 31 32 35
20 22 23 24 24 25 25 25 25 25 26 26 26 25 25 25 24 24 24 23 23 24 25 25 25 24 22 21 21 22 24 27 28 29 30 31 31 32 31 30 31 32 33 34 35 36 35 34 34 35 35 36 36 36 36 35 34 33 31 29 29 30 30 30 30 30 29 27 25 25 25 26 26 26 25 25 29 32 32 32 32 32 32 31 33 37
21 22 23 24 24 25 25 24 24 24 24 23 23 23 24 24 23 23 22 22 22 23 23 25 25 25 24 23 22 22 23 24 26 28 29 31 32 33 33 33 34 34 33 34 36 37 38 37 37 36 36 36 36 36 36 36 35 35 33 31 30 30 31 31 31 31 31 29 26 26 26 27 26 25 24 24 26 29 30 31 32 32 33 32 33 38
21 21 22 22 23 23 24 24 23 23 22 21 21 20 21 22 21 21 21 21 21 21 21 21 21 21 21 21 20 20 21 22 23 24 26 27 29 30 31 32 33 34 34 34 35 36 37 37 37 37 36 36 37 37 37 36 36 35 34 33 31 31 32 32 31 31 32 31 28 26 27 27 26 24 23 23 24 26 29 32 35 38 39 36 33 36
19 19 20 20 20 21 21 21 21 20 19 19 18 18 18 18 19 19 19 19 20 20 20 20 20 20 21 20 20 20 20 21 21 22 23 24 25 26 27 28 29 31 32 32 33 34 35 36 36 35 35 36 36 37 37 37 36 36 35 34 33 32 32 32 32 32 32 32 29 27 27 27 25 22 22 21 23 24 31 40 45 46 46 42 38 39
16 17 18 19 19 19 19 19 19 18 18 17 17 16 16 16 17 17 17 18 18 19 20 21 22 22 21 21 21 21 21 21 21 22 22 23 24 24 25 25 25 26 27 28 29 31 32 33 33 34 34 34 35 35 36 36 36 36 35 34 34 33 33 33 33 32 32 32 31 28 28 28 25 22 21 20 20 21 25 36 44 48 49 49 47 48
16 16 17 17 18 18 18 18 19 18 18 17 17 16 16 16 16 16 17 17 16 16 17 18 19 19 19 19 19 19 19 19 20 21 22 23 24 25 25 25 25 26 26 27 28 29 29 30 31 32 34 34 34 34 34 35 36 35 34 34 34 34 34 34 33 33 32 32 32 30 29 29 27 24 23 22 21 21 20 22 28 35 43 48 50 50
18 17 16 17 16 16 16 17 17 17 17 17 17 16 16 16 15 16 16 16 16 15 14 14 15 15 16 17 17 18 18 19 19 20 21 22 23 24 25 25 26 26 27 28 29 29 29 29 29 30 31 31 31 31 32 33 35 35 34 34 33 33 33 34 34 34 32 31 32 31 30 29 28 26 25 24 24 25 25 22 21 23 28 34 38 42
17 17 16 16 15 14 13 14 15 16 16 16 15 15 15 15 15 15 14 14 14 13 11 11 11 12 13 13 14 15 16 17 18 19 19 20 21 22 22 23 24 25 26 26 27 28 28 29 29 29 30 30 29 28 29 30 31 33 34 35 35 34 33 34 34 34 33 32 32 31 30 29 28 27 27 26 26 27 28 27 24 23 23 23 24 27
14 15 15 14 13 11 10 10 12 14 15 15 14 14 13 13 14 13 12 11 11 9 8 8 8 9 9 9 10 11 12 13 14 15 16 17 18 19 19 20 21 22 23 24 25 26 27 28 29 30 31 32 32 32 31 31 30 31 32 34 35 35 35 34 34 34 33 33 33 32 32 31 28 27 28 28 27 28 30 28 25 24 25 25 23 21
11 12 13 12 12 11 10 9 9 10 13 14 13 11 10 10 11 11 10 9 9 8 8 7 7 6 6 6 7 8 9 10 12 13 15 16 17 19 20 21 21 22 23 24 25 25 26 27 28 29 30 32 33 34 35 34 33 33 33 33 34 34 34 34 34 34 34 33 33 33 33 33 30 27 27 28 29 29 30 30 26 24 24 25 25 23
8 12 13 13 12 13 12 11 11 11 11 12 12 11 9 9 9 10 10 10 9 7 6 4 3 3 3 4 5 7 8 9 10 12 13 15 16 18 20 21 22 23 24 25 26 27 27 28 29 29 30 30 31 32 33 34 35 35 35 35 35 35 36 36 35 35 36 35 35 34 34 34 33 30 28 28 29 29 30 31 30 27 25 25 25 25
7 12 14 13 13 14 14 12 12 13 13 11 11 11 10 9 9 9 8 7 5 4 3 2 2 2 3 4 5 6 7 9 11 12 14 15 16 17 19 20 21 22 24 25 27 28 29 29 30 31 31 31 32 32 32 33 34 35 36 36 36 37 38 38 38 38 38 38 38 38 38 37 37 35 32 31 32 32 32 33 33 31 29 28 27 27
Wind_Direction
214 213 214 215 214 212 213 213 213 213 211 209 207 208 210 212 212 209 212 218 223 223 218 214 214 216 221 228 233 237 242 246 248 249 249 251 256 260 261 262 274 283 277 276 284 288 288 288 285 284 285 280 271 268 269 269 264 255 251 257 265 270 270 270 276 294 297 286 287 288 281 274 267 263 261 261 263 263 267 274 272 264 249 235 235 237
214 214 214 213 211 211 212 212 210 211 212 211 210 211 211 211 211 209 213 220 225 224 217 215 211 207 213 220 227 236 242 246 247 246 247 252 257 258 262 268 273 272 266 268 278 282 284 292 293 291 295 293 283 276 272 267 263 260 261 267 272 273 273 272 278 296 301 292 291 290 286 277 268 265 263 261 262 261 265 270 267 256 243 234 234 238
214 214 212 210 211 213 214 211 207 209 212 211 212 213 211 208 207 209 216 223 227 224 218 217 212 205 210 216 225 235 243 248 248 246 248 253 258 262 265 265 265 265 263 263 270 276 284 295 299 298 305 303 295 287 278 270 266 265 267 270 273 275 275 275 284 298 301 297 294 291 288 278 268 265 262 261 260 258 260 263 262 252 242 236 235 240
213 210 207 208 210 211 211 208 203 207 211 212 214 214 209 205 205 209 218 225 228 224 218 217 214 211 207 212 229 236 238 246 253 255 259 263 265 265 264 262 265 267 266 266 268 276 288 298 301 301 304 304 301 297 284 274 272 271 270 270 271 271 273 276 282 289 291 291 291 290 289 279 269 265 260 257 256 257 260 263 260 249 242 240 240 244
208 205 204 207 209 210 209 205 202 205 209 211 214 213 207 206 206 210 218 223 226 223 219 218 219 217 205 210 235 244 239 240 251 261 266 270 270 267 267 269 271 273 274 273 272 278 290 296 298 299 299 300 304 302 290 276 270 269 268 267 267 267 269 274 278 281 284 287 288 288 288 280 271 266 261 254 250 252 259 265 263 254 246 245 246 245
206 205 206 209 210 211 210 207 205 207 210 211 213 209 204 206 208 212 218 220 224 224 223 224 223 221 218 226 244 252 249 243 246 259 266 268 270 271 273 274 273 274 277 278 277 281 287 289 291 294 296 298 301 301 294 280 269 265 264 264 264 265 267 270 274 278 279 281 283 285 285 279 272 268 263 256 250 247 251 259 264 261 254 250 250 245
207 207 208 210 212 212 211 209 208 209 212 213 213 206 202 207 209 213 217 218 220 223 225 228 227 228 233 242 250 254 256 253 247 257 265 264 265 269 271 271 268 269 272 275 279 283 286 290 293 296 299 298 295 293 290 281 273 268 267 268 268 267 266 265 267 269 270 272 274 277 278 277 274 270 266 262 254 248 247 251 258 261 255 248 250 246
208 208 208 210 212 213 212 211 210 211 214 215 212 205 202 207 209 213 218 218 220 223 225 229 230 232 240 247 252 254 258 259 256 259 264 264 261 261 264 265 262 261 265 272 278 281 284 288 291 294 293 288 283 282 280 275 271 271 278 282 281 276 269 265 263 263 263 263 266 269 272 272 270 268 266 265 261 254 249 249 252 260 259 247 246 249
208 207 208 209 211 213 214 213 212 212 213 212 210 205 203 206 209 215 220 221 223 223 223 228 230 232 242 249 251 252 256 260 263 263 263 263 261 261 263 262 258 256 257 263 269 274 278 281 283 285 285 284 280 275 272 267 260 262 274 274 274 279 276 266 260 261 260 257 258 261 263 264 263 262 263 265 265 259 255 254 251 256 260 249 243 248
205 204 206 208 209 211 211 212 213 213 210 207 207 205 203 207 210 216 221 222 223 222 222 227 231 235 244 250 249 250 255 259 262 264 263 262 263 264 266 266 265 262 258 258 261 266 272 276 278 281 284 288 284 272 265 260 255 264 283 273 269 281 282 269 259 258 257 254 253 253 254 254 253 253 256 261 263 260 256 257 255 255 257 249 243 250
201 203 206 208 209 208 208 210 212 211 207 204 205 206 205 208 211 215 219 222 222 222 223 226 231 237 243 247 248 249 253 258 262 264 264 263 263 264 266 269 274 274 270 267 266 268 273 277 279 281 281 282 281 274 268 262 259 274 295 289 281 283 281 271 264 260 256 255 252 250 250 249 248 248 250 254 257 256 252 253 255 255 252 246 247 253
201 205 206 206 207 207 208 210 209 207 206 206 207 210 209 209 211 214 217 221 222 221 224 229 235 239 241 245 249 250 253 258 262 264 266 265 263 262 263 267 274 276 274 272 273 274 277 280 283 284 283 280 281 281 279 279 279 287 295 293 286 283 278 276 275 267 261 261 258 253 250 248 249 250 248 249 252 252 249 247 247 249 246 244 248 247
203 206 207 207 208 207 208 211 210 206 206 210 212 215 216 213 213 215 217 221 223 222 225 232 237 238 241 245 249 251 254 258 262 266 268 267 264 263 264 267 271 271 270 269 271 274 277 280 282 284 284 282 284 283 281 283 285 287 291 291 287 283 279 282 289 280 266 263 261 256 251 245 243 242 241 243 248 249 249 248 245 244 243 241 240 234
205 207 210 212 212 213 213 212 214 211 209 212 216 220 222 220 216 217 219 221 224 224 226 232 236 239 244 248 249 251 255 259 264 266 267 265 263 263 265 268 270 269 268 268 269 273 277 281 281 281 283 283 284 284 282 282 282 283 286 288 288 287 281 281 288 284 270 264 264 261 254 246 240 236 235 239 245 246 247 249 245 240 239 236 230 224
208 208 212 215 215 218 218 215 217 217 214 214 217 221 226 226 222 220 220 221 223 224 227 232 235 239 244 247 250 253 255 259 262 262 262 262 261 263 265 268 269 267 267 268 271 275 277 279 279 279 281 282 283 284 285 285 283 283 285 287 287 288 286 279 277 280 274 264 259 255 248 244 242 239 237 238 242 244 245 249 247 240 233 232 230 226
209 209 212 215 216 219 220 220 221 220 216 215 217 219 223 226 225 222 221 222 222 224 227 232 235 238 241 244 248 252 255 256 256 256 258 260 261 263 264 266 267 265 265 268 272 276 276 276 276 277 279 281 283 284 285 286 285 284 285 285 285 286 286 281 275 279 276 264 255 248 239 237 240 240 240 243 243 243 245 248 250 242 232 231 233 229
207 208 210 213 217 219 219 220 221 218 216 216 217 218 219 222 224 223 222 223 222 223 225 229 232 235 238 239 241 247 252 254 254 254 255 257 259 259 259 262 264 263 264 268 272 274 273 273 273 275 277 279 282 284 284 284 285 285 285 283 283 284 284 283 280 282 282 276 267 254 236 231 235 238 240 245 246 245 244 245 249 245 234 230 230 227
203 204 209 211 212 214 213 209 210 213 217 219 219 217 217 221 224 223 222 223 222 221 223 225 227 230 233 234 235 241 247 251 252 253 254 255 255 256 257 259 262 263 265 267 269 270 270 270 270 271 273 277 281 283 282 283 285 287 287 286 284 281 279 284 286 285 286 285 281 268 247 235 235 236 239 242 243 243 239 238 244 246 236 228 224 222
198 197 204 207 203 206 209 207 206 211 216 218 217 214 213 218 223 224 223 223 221 220 221 224 227 230 234 237 238 240 243 247 251 254 255 256 256 257 258 259 262 265 265 265 269 271 270 269 269 269 272 277 280 281 281 282 285 288 290 292 290 283 279 283 287 287 284 283 281 272 258 247 239 237 242 241 237 237 234 233 240 244 238 231 227 224
194 194 200 204 201 203 209 210 210 214 218 219 216 210 208 212 217 221 224 225 224 224 225 227 230 233 236 239 240 242 245 249 253 256 260 261 261 262 263 263 263 266 268 270 273 275 275 274 274 273 274 276 277 278 278 279 284 291 292 293 295 292 290 290 291 293 288 280 278 268 255 248 240 238 243 237 231 232 231 231 237 241 239 237 234 230
193 195 200 205 204 204 211 216 216 217 219 221 219 210 206 209 213 216 220 224 226 228 230 231 233 235 237 239 241 244 248 252 256 260 264 265 265 267 269 269 268 269 272 274 277 280 281 279 278 278 277 276 275 276 277 279 284 289 290 294 298 296 297 298 296 300 296 283 275 262 249 242 238 239 241 232 228 229 228 231 236 239 239 237 235 231
190 193 199 204 205 206 212 218 220 220 218 219 221 215 209 211 215 218 221 224 226 227 230 232 232 233 237 240 243 246 250 255 258 260 262 262 262 266 270 271 272 272 273 274 278 281 282 280 278 278 278 277 276 277 278 280 283 285 285 290 297 297 300 307 306 309 310 297 280 261 245 237 236 237 237 233 230 229 227 228 231 234 235 233 233 232
187 191 199 202 205 209 213 214 217 221 220 219 221 221 216 216 219 221 222 227 230 229 231 232 231 233 238 241 244 248 253 256 258 259 258 256 257 261 266 268 269 271 272 273 275 278 279 278 278 280 280 278 278 277 277 279 280 283 285 286 288 288 291 300 306 310 313 311 302 279 252 237 232 235 239 239 236 232 230 229 227 228 229 228 231 232
188 192 201 204 206 211 214 211 211 218 222 221 223 224 222 221 222 223 223 226 230 232 234 235 235 237 241 243 246 251 255 257 259 258 254 253 256 259 262 265 267 269 271 272 273 275 277 279 279 280 281 280 279 279 278 279 282 285 289 289 287 286 286 291 297 302 304 305 305 295 273 248 236 238 245 245 241 238 236 232 227 224 223 224 229 233
193 196 203 206 208 212 215 213 211 214 218 221 223 226 226 225 225 227 227 227 229 232 235 237 238 242 245 247 250 252 254 256 257 255 255 256 256 257 260 264 266 266 266 266 269 272 276 280 281 282 282 280 280 280 281 284 287 289 291 290 288 286 286 287 292 296 296 297 300 297 287 265 245 247 253 250 245 243 242 238 230 224 221 222 228 234
198 201 205 208 212 216 220 219 217 217 219 221 223 227 230 230 229 230 231 232 233 235 238 239 241 245 248 250 252 254 255 257 256 254 256 257 254 257 266 268 265 263 263 263 266 270 274 276 278 280 282 282 282 282 284 286 287 289 289 289 287 286 285 285 289 292 290 290 293 291 284 271 256 260 268 263 253 249 246 241 233 227 224 223 226 232
200 203 208 212 217 223 226 226 224 224 225 226 227 229 232 234 234 232 234 237 239 240 242 243 245 247 249 251 254 257 259 258 256 256 258 257 255 261 270 271 267 265 265 265 266 269 271 273 276 279 281 283 284 284 285 285 286 287 287 287 287 286 285 283 282 283 283 281 283 284 281 272 264 268 278 275 267 262 254 242 233 229 225 221 217 221
207 207 210 215 221 226 229 229 229 229 228 228 230 230 231 233 235 234 234 237 242 245 246 247 248 248 249 252 255 257 259 259 257 258 258 257 256 259 266 271 270 265 262 262 265 268 269 271 274 277 280 281 283 284 285 286 286 286 285 285 285 285 284 282 279 276 273 272 275 278 277 273 268 270 277 275 272 273 261 242 230 228 226 222 215 215
217 216 216 217 221 227 231 233 233 233 232 230 231 232 232 231 233 235 235 238 241 245 248 250 250 250 251 253 255 256 257 258 258 257 258 258 258 259 262 265 264 260 256 257 262 266 267 268 270 274 277 279 281 282 284 285 286 285 284 283 283 283 282 280 279 275 270 267 269 272 273 273 271 271 276 275 271 268 253 235 227 227 228 225 221 219
230 230 228 225 225 227 231 233 235 236 236 235 233 232 232 233 235 237 239 241 242 244 248 250 251 251 252 251 252 253 255 258 259 259 258 259 260 260 258 254 252 254 255 257 261 264 264 266 269 271 274 276 277 279 280 281 282 283 285 285 284 283 280 277 277 276 272 267 264 265 267 269 269 269 270 270 267 260 243 228 226 230 231 230 229 226
238 237 236 234 233 233 233 234 236 237 238 240 239 238 238 239 240 241 242 244 245 245 246 248 250 250 250 249 250 252 255 258 259 258 258 257 256 254 251 245 244 250 259 263 265 265 266 267 270 272 274 275 276 276 276 277 279 281 285 287 287 285 280 276 273 272 271 267 263 262 263 263 264 265 264 263 262 258 247 238 236 237 235 234 234 231
238 239 238 236 236 237 236 235 236 236 237 238 240 242 244 244 244 244 244 246 248 247 247 248 248 247 246 248 252 255 256 257 257 258 259 255 250 248 247 246 248 253 261 266 266 266 266 267 269 272 273 274 274 274 274 275 276 279 282 285 287 287 283 277 272 269 267 264 261 261 262 262 262 261 261 260 259 258 254 249 246 244 241 237 233 230
239 240 238 236 237 239 238 236 235 237 238 241 243 244 243 243 245 246 247 247 247 246 247 249 248 247 247 250 254 257 258 257 257 259 260 255 250 249 250 252 254 257 260 262 264 264 264 265 267 269 270 271 272 273 274 274 276 278 281 284 286 287 285 280 274 269 266 262 259 259 260 262 262 261 261 260 259 258 256 252 249 248 246 241 234 231
242 241 240 237 238 241 242 239 237 238 241 245 248 247 243 242 245 247 247 247 244 243 245 248 249 248 248 250 253 256 258 259 260 259 259 256 253 252 252 254 257 258 258 259 261 262 263 263 265 266 267 268 269 271 273 275 277 278 279 281 283 285 286 284 279 273 268 263 259 257 258 261 263 263 262 260 260 258 254 251 251 251 250 245 237 233
241 239 238 237 237 239 241 241 240 240 242 245 248 248 245 245 247 247 246 245 243 241 244 247 247 246 246 249 251 254 256 259 260 259 258 257 254 253 254 257 257 257 257 258 259 260 262 263 264 265 265 266 268 270 273 275 277 279 279 278 278 281 283 284 282 277 272 268 263 258 257 259 262 264 262 260 259 256 251 248 249 250 249 245 237 233
236 235 235 235 235 236 238 239 240 241 242 244 246 246 245 245 245 245 244 244 242 242 243 245 247 246 245 246 250 253 255 256 258 258 259 259 256 255 257 259 258 256 256 257 257 258 260 261 263 264 265 266 268 271 273 276 277 278 279 278 276 277 279 281 281 279 275 271 267 263 260 260 263 265 263 259 257 256 250 245 247 250 249 243 235 233
232 233 233 234 235 237 238 239 239 240 240 241 240 239 240 241 243 245 244 243 243 243 243 245 248 249 248 248 250 253 256 258 260 261 261 261 260 258 256 257 257 256 256 256 255 255 256 258 260 262 263 265 268 270 273 275 276 278 279 279 277 276 276 279 281 281 279 274 270 266 263 264 268 269 265 259 257 256 252 246 247 249 248 243 235 231
232 233 234 235 237 238 238 239 239 239 239 237 236 236 238 241 244 246 247 246 245 245 246 248 250 252 253 253 253 254 256 257 259 260 261 262 262 261 257 256 257 257 257 256 255 255 255 257 258 261 262 264 266 268 271 273 275 277 278 278 278 277 276 278 280 281 281 278 274 269 263 264 270 272 269 262 258 257 253 247 245 246 246 243 236 230
236 237 237 237 238 238 239 240 241 240 239 238 238 238 240 242 243 245 247 247 247 247 248 249 251 252 253 254 254 253 253 254 255 256 258 259 261 261 259 257 256 257 257 257 257 257 258 258 258 259 261 264 266 268 269 271 273 275 275 276 276 276 276 277 279 280 281 279 276 273 267 264 267 272 271 265 261 259 253 244 241 244 245 243 237 232
240 242 242 240 239 239 239 239 240 240 240 240 241 241 242 244 244 245 247 247 246 246 247 247 249 251 253 255 256 255 254 254 255 255 256 257 258 260 260 259 258 258 258 258 258 259 259 258 258 258 259 262 265 266 268 270 271 273 274 273 274 275 276 276 277 279 280 280 278 276 273 269 268 271 272 265 260 258 251 241 239 242 244 242 237 233
245 245 244 243 241 240 239 238 238 238 239 240 241 242 243 244 245 245 245 245 244 244 245 246 248 252 255 257 257 257 256 255 255 255 256 256 258 259 260 262 263 262 261 261 261 260 259 258 257 258 258 260 262 264 266 268 270 271 273 273 272 273 275 275 276 278 279 280 278 276 277 276 274 275 275 266 256 251 245 238 236 237 240 242 238 233
247 246 245 244 242 240 239 238 237 238 239 241 241 242 243 244 244 243 242 242 243 244 244 244 246 248 251 253 254 254 255 256 256 257 258 259 260 261 262 264 266 267 267 265 264 262 261 260 259 259 259 260 261 262 264 266 268 270 272 272 272 272 274 275 275 276 278 280 279 276 277 279 279 281 281 276 267 256 242 236 235 233 232 235 238 237
244 243 242 242 241 240 238 237 236 237 238 239 238 237 239 240 240 239 239 239 241 242 243 243 243 244 247 250 252 253 255 256 257 258 259 260 262 263 265 266 268 271 272 272 270 267 265 263 262 261 261 261 262 264 265 266 267 268 269 271 271 271 273 274 274 275 276 278 279 277 276 278 280 282 283 283 283 267 241 232 234 232 227 226 230 233
240 238 237 236 235 235 233 231 231 230 231 232 232 230 231 234 235 234 234 236 238 241 244 245 245 246 248 250 251 253 254 256 258 259 260 262 262 264 266 268 269 272 275 276 276 275 273 270 268 265 264 263 264 266 267 267 266 265 265 267 269 270 271 271 272 273 274 275 277 276 276 276 277 277 275 274 281 275 245 229 228 227 224 223 225 228
241 239 237 234 233 232 230 227 227 227 225 226 227 226 227 231 232 231 231 233 234 238 242 244 244 245 247 248 250 252 255 257 259 261 263 264 265 266 268 270 271 273 274 275 276 277 277 275 273 271 269 267 267 267 267 266 264 262 262 264 265 267 268 268 268 268 269 272 274 273 273 273 273 273 270 265 264 267 259 241 230 224 219 219 223 227
244 241 236 232 231 231 229 227 226 225 223 224 224 224 225 227 229 230 231 231 232 235 238 239 241 244 247 250 253 255 258 261 263 264 265 266 268 269 271 272 273 274 275 275 275 275 275 275 275 274 273 272 271 270 268 265 262 259 258 260 262 263 264 265 266 266 265 266 268 269 269 269 268 267 267 263 259 259 261 259 250 237 224 219 222 227
240 236 232 226 224 224 224 224 224 223 223 222 218 216 216 218 220 223 224 228 234 239 242 241 244 249 253 256 259 261 263 265 266 267 269 270 271 272 273 273 274 274 274 275 275 275 274 273 273 274 274 275 276 276 274 271 266 262 258 257 257 258 259 261 263 265 266 264 263 264 263 262 262 262 262 261 259 259 262 265 261 253 244 237 231 229
229 225 220 214 212 211 210 212 216 220 221 215 209 208 209 209 213 217 220 228 238 242 238 233 234 240 246 250 256 260 263 267 270 272 275 276 277 278 278 277 277 277 276 276 276 276 275 273 272 272 273 273 274 275 275 275 274 272 268 264 262 259 257 257 258 260 263 264 264 264 264 262 259 257 257 259 258 257 261 265 265 260 256 254 250 241
217 209 202 201 201 196 190 185 186 201 211 207 202 206 210 206 207 211 209 210 214 212 208 211 218 229 243 255 266 273 277 281 283 284 284 284 283 283 281 280 279 278 277 277 277 276 276 275 273 273 273 273 273 272 272 272 272 273 274 273 272 270 266 263 261 260 261 262 264 266 267 268 265 259 256 257 258 256 256 259 261 259 257 257 258 255
205 188 182 186 187 185 186 180 167 166 183 193 193 194 194 188 186 186 184 184 186 186 187 197 218 245 268 278 285 291 296 298 298 296 294 292 290 289 287 285 282 280 279 277 277 276 275 274 274 274 274 274 273 272 272 271 271 270 270 270 271 271 271 270 269 267 266 265 264 266 268 269 269 265 260 259 259 258 256 258 260 260 258 256 257 258
180 172 170 174 175 176 177 173 160 152 153 159 165 165 161 159 161 163 167 167 162 156 159 177 213 242 264 279 292 302 309 311 311 309 307 304 302 299 297 293 291 287 284 281 279 277 276 275 274 273 272 272 271 271 270 270 270 269 269 269 267 267 267 267 267 268 268 268 267 268 270 271 271 269 264 260 259 259 258 258 261 264 264 263 262 260
Height
5738 5740 5743 5746 5748 5750 5752 5756 5759 5761 5763 5765 5767 5769 5770 5772 5774 5776 5777 5777 5779 5781 5783 5784 5784 5785 5787 5789 5789 5789 5790 5791 5793 5793 5793 5792 5793 5793 5792 5793 5792 5792 5792 5792 5792 5792 5793 5792 5793 5794 5794 5794 5794 5795 5795 5795 5795 5795 5796 5797 5797 5796 5796 5796 5796 5797 5797 5798 5799 5798 5796 5795 5794 5794 5794 5794 5795 5795 5794 5794 5793 5793 5794 5795 5796 5797
5735 5737 5741 5743 5745 5747 5750 5752 5755 5757 5759 5761 5763 5765 5768 5770 5772 5774 5775 5775 5777 5780 5781 5781 5782 5783 5785 5785 5785 5786 5787 5788 5790 5790 5790 5790 5790 5789 5789 5790 5790 5790 5790 5790 5790 5790 5790 5791 5791 5792 5793 5793 5793 5793 5793 5793 5794 5794 5794 5794 5794 5794 5793 5793 5794 5795 5796 5797 5797 5796 5795 5793 5792 5792 5792 5792 5793 5793 5792 5792 5792 5792 5793 5793 5794 5795
5731 5735 5739 5741 5742 5745 5747 5749 5752 5755 5756 5758 5760 5762 5765 5768 5770 5772 5773 5774 5776 5778 5779 5779 5781 5782 5782 5782 5782 5783 5784 5785 5787 5787 5787 5787 5787 5786 5786 5787 5787 5787 5787 5788 5788 5788 5789 5789 5789 5790 5791 5791 5791 5791 5791 5791 5792 5792 5792 5792 5792 5792 5791 5792 5793 5794 5795 5796 5795 5794 5793 5792 5790 5790 5790 5790 5790 5791 5791 5791 5791 5791 5791 5792 5792 5793
5730 5734 5736 5738 5740 5741 5744 5746 5750 5752 5753 5756 5757 5760 5764 5766 5767 5770 5771 5771 5773 5775 5777 5778 5779 5779 5779 5778 5779 5781 5782 5782 5784 5784 5784 5784 5784 5784 5784 5784 5784 5784 5785 5786 5787 5787 5788 5789 5788 5788 5789 5789 5788 5788 5788 5788 5789 5790 5790 5790 5790 5790 5789 5790 5791 5791 5792 5792 5792 5791 5790 5789 5788 5787 5788 5788 5788 5788 5789 5790 5789 5789 5789 5790 5790 5791
5729 5731 5732 5734 5736 5738 5740 5744 5746 5748 5750 5753 5755 5759 5762 5763 5765 5767 5768 5768 5769 5771 5774 5775 5775 5776 5775 5775 5775 5777 5779 5781 5782 5781 5781 5781 5781 5781 5782 5782 5782 5783 5784 5785 5785 5786 5787 5787 5787 5786 5786 5786 5786 5785 5784 5785 5785 5786 5786 5786 5787 5787 5787 5787 5787 5787 5788 5789 5788 5788 5787 5787 5786 5785 5785 5785 5785 5786 5787 5788 5787 5787 5788 5788 5788 5789
5725 5726 5728 5730 5733 5735 5738 5741 5744 5746 5748 5750 5753 5757 5760 5761 5763 5764 5765 5765 5766 5768 5770 5771 5772 5771 5771 5772 5773 5774 5776 5779 5780 5779 5779 5779 5779 5779 5780 5780 5781 5781 5782 5782 5783 5785 5786 5786 5786 5785 5784 5784 5784 5783 5782 5781 5781 5781 5781 5782 5782 5783 5783 5784 5784 5783 5784 5784 5784 5784 5784 5784 5783 5783 5782 5783 5783 5783 5784 5785 5785 5785 5785 5785 5786 5786
5721 5723 5725 5728 5730 5733 5736 5739 5741 5743 5745 5747 5751 5755 5758 5759 5760 5761 5762 5762 5763 5765 5766 5767 5768 5768 5768 5770 5771 5772 5773 5776 5778 5777 5777 5777 5778 5778 5778 5779 5779 5780 5780 5780 5781 5782 5783 5784 5784 5784 5783 5782 5782 5781 5780 5778 5777 5777 5777 5779 5779 5780 5780 5780 5780 5779 5779 5779 5779 5780 5780 5781 5781 5780 5780 5780 5781 5781 5781 5782 5784 5783 5782 5782 5782 5784
5717 5720 5723 5725 5728 5730 5733 5736 5739 5741 5743 5746 5750 5754 5756 5756 5758 5758 5758 5759 5760 5762 5763 5764 5765 5765 5766 5768 5769 5769 5770 5772 5774 5775 5775 5776 5776 5777 5777 5777 5777 5778 5779 5779 5779 5780 5781 5781 5781 5781 5780 5779 5778 5778 5777 5775 5773 5773 5775 5777 5777 5777 5777 5777 5776 5775 5775 5775 5775 5775 5776 5777 5777 5777 5777 5777 5778 5778 5779 5780 5780 5780 5780 5780 5780 5781
5716 5719 5721 5723 5725 5728 5732 5735 5737 5739 5741 5745 5748 5751 5753 5754 5755 5755 5755 5757 5758 5759 5761 5762 5762 5763 5764 5766 5766 5766 5767 5769 5770 5772 5773 5773 5774 5774 5775 5775 5776 5776 5777 5777 5777 5778 5778 5779 5778 5778 5777 5776 5775 5774 5772 5770 5768 5768 5770 5771 5772 5773 5774 5774 5773 5772 5772 5771 5770 5771 5772 5772 5773 5774 5774 5774 5775 5775 5776 5777 5776 5777 5777 5777 5778 5779
5713 5715 5717 5720 5722 5726 5729 5732 5734 5736 5739 5742 5744 5747 5750 5751 5752 5752 5753 5754 5756 5757 5758 5759 5759 5761 5763 5763 5763 5763 5765 5766 5767 5768 5770 5770 5770 5771 5771 5772 5772 5773 5774 5775 5775 5775 5775 5776 5776 5776 5775 5774 5773 5773 5772 5770 5767 5765 5767 5768 5769 5770 5771 5771 5770 5768 5767 5767 5766 5766 5766 5767 5768 5769 5770 5770 5771 5772 5773 5773 5773 5774 5774 5774 5775 5776
5710 5712 5714 5718 5721 5724 5726 5728 5731 5734 5736 5738 5740 5743 5745 5747 5749 5750 5751 5752 5753 5754 5755 5756 5757 5759 5760 5760 5760 5761 5762 5763 5764 5765 5766 5767 5768 5768 5768 5768 5769 5769 5770 5771 5772 5772 5773 5773 5773 5773 5773 5771 5770 5771 5771 5770 5768 5765 5766 5768 5768 5767 5768 5768 5767 5766 5764 5763 5762 5761 5761 5762 5764 5765 5767 5768 5769 5769 5769 5770 5770 5771 5772 5772 5773 5773
5707 5710 5713 5716 5719 5722 5724 5725 5728 5731 5733 5735 5737 5739 5742 5744 5746 5747 5748 5748 5749 5751 5752 5753 5755 5756 5756 5757 5757 5759 5760 5761 5761 5761 5763 5764 5765 5765 5765 5766 5766 5766 5767 5767 5768 5768 5769 5770 5770 5771 5770 5769 5768 5768 5767 5766 5765 5764 5764 5765 5765 5763 5763 5762 5762 5763 5763 5761 5760 5760 5760 5761 5762 5763 5765 5765 5766 5766 5766 5766 5766 5767 5769 5770 5770 5770
5706 5709 5712 5715 5717 5719 5721 5723 5725 5728 5731 5733 5734 5736 5738 5740 5742 5743 5744 5745 5747 5749 5750 5751 5753 5753 5753 5754 5754 5756 5757 5758 5758 5759 5759 5761 5762 5762 5763 5764 5764 5764 5764 5765 5765 5765 5766 5767 5767 5767 5767 5766 5765 5766 5765 5763 5763 5762 5761 5761 5761 5759 5758 5758 5758 5759 5759 5758 5758 5759 5760 5760 5760 5760 5761 5762 5763 5764 5764 5763 5763 5764 5766 5767 5768 5768
5706 5709 5711 5713 5715 5716 5718 5720 5723 5726 5729 5731 5732 5733 5734 5736 5739 5739 5740 5742 5744 5746 5748 5749 5750 5749 5750 5751 5752 5753 5754 5755 5756 5757 5757 5757 5759 5760 5760 5761 5762 5762 5762 5762 5763 5763 5763 5764 5764 5764 5763 5762 5761 5761 5761 5761 5761 5760 5758 5758 5757 5756 5754 5755 5755 5755 5755 5755 5756 5758 5759 5758 5756 5756 5757 5759 5760 5761 5761 5761 5761 5761 5763 5764 5765 5765
5704 5706 5708 5710 5713 5714 5716 5719 5721 5725 5728 5729 5729 5730 5731 5733 5735 5736 5738 5740 5742 5744 5745 5746 5747 5747 5747 5748 5749 5749 5751 5753 5755 5755 5754 5754 5756 5757 5758 5759 5759 5759 5759 5760 5760 5761 5761 5761 5761 5761 5760 5758 5757 5756 5756 5756 5757 5757 5755 5755 5754 5753 5752 5751 5752 5751 5750 5750 5751 5751 5752 5752 5752 5753 5754 5755 5757 5758 5759 5759 5759 5759 5760 5761 5762 5762
5701 5704 5706 5709 5711 5712 5715 5718 5720 5723 5724 5725 5726 5727 5728 5730 5732 5734 5736 5738 5741 5743 5743 5744 5744 5744 5745 5746 5747 5747 5749 5751 5752 5752 5752 5752 5754 5755 5756 5756 5757 5757 5757 5757 5757 5758 5758 5758 5758 5758 5757 5755 5754 5753 5752 5751 5752 5752 5752 5751 5751 5750 5748 5748 5748 5746 5744 5745 5746 5744 5743 5745 5747 5750 5752 5753 5754 5755 5757 5757 5757 5758 5759 5759 5759 5760
5700 5703 5705 5707 5709 5712 5715 5717 5719 5720 5721 5722 5723 5724 5726 5728 5729 5732 5733 5735 5738 5740 5741 5741 5741 5741 5742 5744 5745 5745 5747 5748 5749 5750 5750 5751 5752 5753 5753 5754 5754 5754 5755 5755 5755 5755 5755 5755 5755 5755 5754 5753 5752 5751 5750 5749 5748 5748 5748 5748 5748 5747 5744 5744 5745 5743 5740 5742 5743 5740 5739 5741 5743 5746 5748 5749 5751 5753 5754 5755 5755 5756 5757 5757 5757 5758
5698 5701 5703 5705 5708 5710 5713 5714 5716 5717 5718 5719 5721 5723 5725 5725 5726 5728 5730 5732 5734 5736 5737 5737 5738 5739 5740 5741 5742 5743 5744 5745 5746 5747 5748 5749 5750 5751 5751 5752 5752 5752 5752 5753 5753 5753 5753 5753 5753 5753 5752 5751 5750 5749 5748 5747 5746 5746 5746 5745 5745 5744 5742 5741 5742 5741 5738 5737 5737 5738 5738 5739 5741 5743 5746 5747 5748 5749 5751 5752 5753 5754 5755 5755 5755 5757
5696 5699 5700 5703 5705 5707 5709 5711 5712 5714 5715 5716 5718 5721 5722 5723 5724 5725 5727 5728 5731 5732 5733 5734 5735 5736 5737 5738 5739 5740 5741 5743 5744 5745 5746 5747 5748 5748 5749 5750 5750 5750 5750 5750 5751 5751 5751 5750 5751 5750 5749 5749 5748 5747 5746 5745 5745 5745 5744 5743 5742 5741 5739 5739 5738 5738 5736 5733 5732 5734 5735 5736 5738 5741 5743 5744 5745 5746 5748 5749 5750 5752 5753 5753 5754 5755
5694 5697 5698 5700 5703 5705 5707 5708 5709 5711 5712 5713 5716 5718 5719 5720 5721 5723 5725 5726 5728 5729 5730 5731 5731 5733 5734 5735 5736 5737 5739 5741 5742 5743 5743 5744 5745 5746 5746 5747 5747 5747 5747 5747 5748 5747 5747 5747 5747 5747 5746 5745 5745 5744 5744 5743 5743 5743 5742 5741 5740 5738 5737 5736 5736 5735 5734 5731 5730 5731 5732 5734 5737 5739 5740 5741 5742 5743 5745 5746 5746 5748 5750 5751 5752 5753
5693 5695 5697 5699 5701 5703 5704 5705 5707 5709 5710 5712 5713 5715 5716 5717 5718 5720 5722 5724 5725 5726 5727 5728 5729 5730 5732 5732 5733 5735 5736 5738 5740 5741 5741 5742 5742 5742 5743 5743 5744 5744 5744 5744 5744 5744 5743 5743 5743 5743 5743 5742 5742 5741 5741 5741 5741 5741 5740 5739 5738 5736 5735 5734 5734 5733 5732 5730 5729 5729 5730 5732 5735 5737 5738 5738 5739 5740 5742 5743 5744 5744 5745 5747 5748 5750
5691 5693 5695 5697 5699 5701 5702 5703 5705 5707 5709 5710 5711 5713 5715 5715 5717 5718 5720 5721 5722 5724 5725 5725 5727 5728 5729 5730 5732 5733 5734 5736 5737 5738 5739 5739 5739 5740 5740 5741 5741 5741 5741 5741 5741 5741 5740 5740 5740 5740 5740 5739 5739 5739 5739 5739 5739 5738 5738 5737 5737 5735 5734 5733 5732 5731 5730 5729 5728 5728 5729 5730 5732 5735 5736 5736 5737 5738 5738 5739 5740 5741 5742 5743 5745 5747
5689 5691 5692 5694 5696 5698 5700 5702 5704 5706 5707 5709 5710 5711 5713 5714 5715 5716 5718 5719 5721 5722 5723 5723 5725 5725 5726 5728 5730 5731 5732 5733 5735 5736 5736 5737 5737 5738 5738 5739 5739 5739 5739 5739 5738 5738 5737 5737 5737 5737 5737 5737 5737 5737 5737 5737 5736 5736 5736 5735 5735 5734 5733 5732 5732 5731 5730 5729 5728 5728 5728 5729 5731 5733 5734 5734 5735 5735 5735 5736 5737 5738 5740 5740 5742 5744
5688 5689 5690 5692 5694 5696 5698 5700 5702 5704 5705 5707 5708 5709 5710 5712 5714 5715 5716 5718 5719 5720 5721 5722 5723 5723 5724 5727 5728 5729 5730 5731 5732 5733 5734 5735 5735 5736 5736 5736 5737 5737 5736 5736 5735 5735 5735 5734 5734 5734 5734 5734 5734 5734 5734 5734 5734 5733 5733 5733 5732 5732 5731 5731 5731 5730 5729 5728 5728 5728 5728 5728 5729 5730 5731 5732 5732 5733 5733 5733 5734 5736 5737 5738 5740 5742
5686 5687 5688 5690 5692 5693 5694 5696 5699 5701 5703 5705 5706 5707 5708 5710 5711 5713 5714 5716 5717 5718 5719 5720 5720 5721 5723 5725 5726 5727 5728 5729 5730 5731 5731 5732 5733 5734 5734 5734 5734 5734 5734 5734 5733 5733 5732 5732 5731 5731 5731 5732 5732 5732 5731 5731 5730 5730 5730 5730 5730 5730 5729 5729 5729 5729 5728 5727 5727 5727 5726 5726 5727 5728 5729 5729 5729 5729 5730 5731 5732 5733 5734 5735 5737 5738
5684 5686 5686 5688 5690 5691 5692 5695 5697 5699 5701 5703 5704 5705 5707 5708 5709 5711 5712 5714 5715 5716 5717 5718 5718 5719 5721 5722 5723 5724 5725 5726 5727 5728 5729 5730 5731 5732 5732 5732 5732 5732 5731 5731 5731 5730 5730 5729 5729 5728 5728 5729 5729 5729 5728 5728 5728 5728 5727 5727 5727 5727 5727 5727 5727 5727 5726 5725 5725 5725 5725 5724 5725 5726 5727 5726 5725 5725 5726 5727 5729 5730 5731 5732 5734 5735
5683 5684 5686 5687 5689 5690 5692 5694 5696 5698 5700 5701 5702 5704 5705 5706 5707 5709 5710 5711 5712 5713 5714 5715 5716 5717 5719 5720 5721 5722 5723 5724 5725 5726 5726 5727 5728 5729 5730 5730 5729 5729 5729 5728 5728 5728 5727 5727 5726 5726 5726 5726 5726 5726 5726 5726 5726 5726 5725 5724 5724 5724 5724 5724 5724 5724 5724 5723 5723 5723 5724 5724 5723 5723 5723 5723 5722 5722 5723 5724 5726 5727 5727 5728 5731 5733
5681 5683 5685 5687 5688 5688 5689 5691 5693 5695 5697 5699 5700 5701 5703 5704 5705 5707 5708 5709 5710 5710 5711 5712 5713 5715 5716 5717 5718 5719 5719 5721 5722 5722 5723 5724 5725 5726 5727 5727 5727 5726 5726 5726 5726 5725 5725 5724 5724 5724 5724 5724 5724 5724 5724 5723 5723 5723 5723 5722 5722 5721 5721 5721 5721 5721 5721 5721 5721 5721 5721 5721 5721 5721 5720 5720 5720 5720 5721 5722 5724 5725 5725 5726 5727 5730
5680 5682 5683 5685 5686 5687 5687 5688 5690 5692 5694 5696 5697 5699 5700 5702 5703 5704 5705 5706 5707 5708 5708 5710 5711 5712 5713 5714 5715 5715 5716 5717 5718 5719 5719 5721 5722 5723 5724 5724 5723 5723 5724 5724 5723 5723 5723 5722 5722 5722 5721 5721 5721 5721 5721 5721 5721 5720 5721 5720 5720 5719 5719 5718 5718 5718 5719 5719 5718 5718 5718 5718 5718 5718 5718 5718 5718 5718 5718 5720 5722 5723 5724 5725 5725 5726
5677 5679 5681 5683 5684 5685 5685 5686 5687 5688 5690 5692 5694 5696 5698 5699 5700 5702 5703 5703 5704 5705 5705 5707 5708 5708 5710 5711 5712 5712 5713 5714 5715 5716 5716 5717 5718 5719 5720 5720 5720 5721 5721 5721 5721 5720 5720 5720 5720 5719 5719 5719 5719 5719 5719 5718 5718 5717 5718 5718 5718 5717 5717 5716 5716 5716 5716 5716 5716 5715 5715 5715 5715 5716 5716 5716 5716 5716 5717 5718 5720 5721 5722 5723 5723 5723
5674 5675 5677 5680 5682 5682 5683 5684 5685 5686 5688 5689 5691 5692 5694 5696 5697 5699 5700 5701 5701 5702 5703 5704 5705 5705 5707 5708 5709 5709 5710 5711 5711 5712 5713 5714 5715 5716 5716 5717 5718 5718 5718 5717 5717 5717 5717 5717 5717 5717 5717 5716 5716 5716 5716 5716 5715 5715 5714 5715 5715 5715 5714 5714 5714 5713 5713 5713 5713 5712 5712 5713 5713 5713 5713 5713 5713 5714 5715 5716 5718 5719 5720 5720 5720 5721
5671 5672 5674 5676 5678 5678 5679 5681 5682 5683 5685 5686 5687 5688 5690 5692 5693 5695 5696 5697 5698 5699 5700 5701 5701 5702 5703 5705 5705 5706 5707 5707 5708 5709 5710 5711 5711 5712 5713 5714 5715 5715 5715 5714 5714 5714 5714 5714 5714 5714 5714 5713 5713 5713 5713 5713 5712 5712 5711 5711 5712 5712 5711 5711 5711 5711 5711 5711 5710 5710 5709 5710 5710 5710 5710 5710 5711 5711 5712 5713 5715 5715 5716 5716 5717 5718
5667 5669 5670 5673 5674 5674 5676 5678 5679 5680 5682 5682 5684 5685 5686 5688 5689 5691 5692 5694 5695 5695 5696 5697 5697 5698 5700 5701 5702 5702 5702 5703 5704 5705 5706 5707 5708 5708 5709 5710 5711 5712 5712 5711 5711 5711 5710 5710 5710 5710 5710 5710 5710 5710 5710 5710 5709 5709 5709 5708 5708 5708 5708 5708 5708 5708 5707 5708 5708 5707 5707 5707 5707 5707 5707 5707 5707 5707 5708 5709 5710 5711 5711 5712 5713 5714
5664 5666 5667 5669 5670 5671 5672 5674 5676 5677 5678 5679 5681 5682 5683 5685 5686 5687 5689 5690 5691 5692 5693 5693 5694 5695 5696 5697 5698 5698 5698 5699 5700 5700 5701 5702 5704 5705 5706 5707 5708 5708 5708 5708 5708 5707 5707 5707 5707 5707 5707 5707 5707 5707 5707 5706 5706 5706 5706 5705 5705 5705 5705 5705 5705 5704 5704 5704 5704 5704 5704 5703 5703 5703 5704 5704 5704 5704 5704 5705 5706 5706 5707 5708 5709 5710
5661 5662 5664 5666 5667 5668 5669 5671 5672 5674 5675 5677 5679 5679 5680 5682 5683 5684 5685 5687 5688 5689 5690 5690 5691 5692 5693 5693 5694 5695 5695 5695 5696 5696 5697 5698 5700 5701 5702 5704 5704 5704 5704 5704 5704 5704 5704 5703 5704 5704 5704 5704 5703 5703 5703 5703 5703 5703 5703 5703 5702 5702 5702 5702 5702 5701 5701 5700 5700 5700 5700 5700 5699 5699 5700 5700 5700 5699 5699 5701 5702 5702 5703 5704 5704 5706
5658 5659 5661 5662 5663 5665 5666 5667 5669 5671 5672 5675 5676 5677 5678 5679 5679 5681 5682 5683 5684 5686 5687 5687 5688 5689 5690 5690 5691 5691 5692 5692 5692 5693 5693 5694 5696 5697 5698 5699 5700 5699 5700 5700 5700 5700 5700 5700 5700 5700 5700 5700 5700 5700 5700 5699 5699 5699 5699 5699 5699 5698 5698 5698 5698 5698 5697 5697 5697 5697 5696 5696 5695 5696 5696 5696 5696 5695 5695 5697 5698 5698 5699 5700 5701 5702
5656 5657 5658 5659 5660 5662 5663 5665 5666 5668 5670 5672 5673 5674 5674 5675 5676 5678 5679 5680 5681 5682 5683 5684 5685 5685 5686 5687 5688 5688 5688 5688 5689 5689 5690 5691 5691 5693 5694 5695 5695 5695 5696 5696 5696 5697 5697 5697 5697 5697 5696 5696 5696 5696 5696 5695 5695 5695 5695 5695 5695 5695 5695 5695 5694 5694 5694 5694 5693 5693 5693 5692 5691 5691 5692 5691 5691 5691 5692 5693 5694 5694 5695 5696 5697 5699
5654 5655 5656 5657 5658 5659 5660 5662 5663 5665 5667 5668 5669 5670 5671 5672 5673 5675 5675 5677 5678 5679 5680 5681 5682 5682 5683 5683 5684 5685 5685 5685 5685 5686 5687 5687 5687 5689 5690 5690 5690 5691 5691 5692 5692 5693 5693 5694 5694 5693 5692 5692 5692 5693 5692 5692 5692 5692 5692 5692 5691 5691 5691 5691 5690 5690 5690 5690 5690 5689 5689 5688 5687 5687 5687 5687 5686 5687 5688 5689 5690 5690 5691 5692 5693 5695
5651 5652 5653 5654 5655 5656 5657 5659 5661 5662 5664 5665 5666 5667 5668 5669 5670 5672 5673 5674 5675 5676 5677 5678 5678 5679 5680 5680 5681 5681 5682 5682 5682 5683 5683 5683 5684 5684 5686 5686 5686 5686 5687 5687 5688 5688 5689 5690 5690 5689 5689 5689 5689 5689 5688 5688 5688 5688 5688 5688 5688 5687 5687 5687 5686 5686 5686 5686 5686 5685 5685 5685 5684 5683 5683 5683 5682 5682 5683 5684 5686 5687 5687 5689 5690 5691
5649 5649 5650 5651 5652 5654 5655 5656 5658 5659 5660 5661 5663 5664 5665 5666 5667 5669 5670 5671 5672 5673 5674 5675 5675 5676 5677 5677 5678 5678 5678 5679 5679 5680 5680 5680 5680 5680 5681 5682 5682 5682 5682 5683 5683 5684 5684 5685 5685 5685 5685 5685 5685 5684 5684 5684 5684 5684 5684 5684 5684 5683 5683 5682 5682 5681 5681 5682 5682 5681 5680 5680 5680 5679 5679 5678 5678 5678 5678 5680 5681 5683 5684 5685 5686 5687
5646 5647 5647 5649 5650 5651 5652 5654 5655 5656 5657 5658 5660 5661 5662 5663 5665 5666 5667 5668 5669 5670 5671 5672 5672 5673 5674 5674 5675 5675 5675 5676 5676 5676 5676 5677 5677 5677 5677 5678 5677 5678 5678 5679 5679 5679 5679 5680 5680 5680 5681 5681 5681 5680 5680 5680 5680 5680 5680 5681 5681 5680 5679 5679 5678 5678 5677 5677 5678 5677 5676 5675 5675 5675 5674 5674 5673 5673 5674 5675 5677 5678 5680 5681 5682 5683
5643 5644 5645 5646 5647 5648 5649 5651 5652 5653 5655 5656 5657 5658 5659 5660 5662 5663 5664 5665 5666 5667 5668 5669 5670 5670 5671 5671 5672 5672 5672 5672 5673 5673 5673 5673 5674 5674 5674 5674 5673 5673 5674 5674 5674 5674 5674 5675 5676 5676 5676 5676 5676 5676 5676 5676 5676 5676 5676 5676 5676 5676 5676 5675 5675 5674 5674 5673 5673 5673 5672 5671 5671 5670 5670 5669 5669 5669 5670 5671 5672 5673 5675 5676 5678 5680
5641 5641 5642 5643 5644 5645 5647 5648 5650 5651 5652 5654 5655 5656 5657 5658 5659 5660 5662 5663 5664 5664 5665 5666 5667 5668 5668 5669 5669 5669 5669 5670 5670 5670 5670 5670 5670 5670 5670 5670 5670 5669 5669 5669 5670 5670 5670 5671 5672 5672 5672 5672 5672 5672 5672 5672 5672 5672 5672 5672 5672 5672 5672 5672 5671 5671 5670 5670 5670 5670 5669 5669 5668 5668 5667 5666 5666 5666 5666 5666 5667 5668 5669 5671 5673 5675
5638 5639 5640 5641 5642 5643 5644 5646 5647 5649 5650 5651 5652 5654 5655 5656 5657 5658 5659 5660 5661 5662 5663 5663 5664 5665 5666 5666 5666 5667 5667 5667 5667 5667 5667 5667 5667 5667 5667 5667 5667 5667 5666 5666 5666 5666 5666 5667 5667 5668 5668 5668 5668 5668 5668 5668 5667 5668 5668 5668 5668 5668 5669 5668 5668 5667 5667 5666 5666 5666 5666 5666 5666 5666 5665 5665 5665 5664 5663 5663 5662 5662 5663 5665 5667 5668
5635 5636 5637 5638 5640 5641 5642 5643 5645 5646 5648 5649 5650 5651 5653 5654 5655 5656 5657 5658 5659 5660 5660 5661 5662 5663 5663 5664 5664 5664 5665 5665 5665 5665 5664 5664 5664 5664 5664 5664 5664 5664 5664 5663 5663 5662 5662 5662 5663 5663 5663 5663 5664 5664 5663 5663 5663 5663 5664 5664 5664 5664 5664 5664 5664 5663 5663 5663 5662 5662 5662 5662 5663 5663 5663 5663 5663 5663 5662 5661 5661 5661 5661 5661 5661 5662
5633 5634 5635 5636 5637 5639 5640 5641 5643 5644 5645 5646 5648 5649 5651 5652 5653 5654 5655 5656 5657 5658 5659 5659 5660 5661 5661 5662 5662 5662 5662 5662 5662 5662 5662 5662 5662 5662 5662 5662 5661 5661 5660 5660 5659 5659 5659 5659 5659 5659 5658 5658 5658 5659 5659 5659 5659 5659 5660 5660 5660 5660 5660 5659 5659 5659 5660 5660 5659 5658 5658 5659 5659 5660 5660 5660 5660 5660 5660 5660 5660 5661 5662 5661 5660 5660
5630 5631 5632 5634 5635 5637 5638 5639 5641 5642 5643 5644 5646 5647 5649 5650 5651 5652 5653 5655 5656 5656 5657 5658 5658 5659 5659 5660 5660 5660 5660 5660 5660 5660 5660 5660 5660 5659 5659 5659 5658 5658 5657 5657 5656 5655 5655 5655 5655 5655 5654 5654 5654 5654 5654 5654 5654 5655 5655 5655 5655 5656 5655 5655 5655 5655 5655 5655 5655 5655 5655 5655 5655 5656 5656 5656 5656 5656 5656 5656 5658 5659 5660 5660 5659 5659
5628 5629 5631 5632 5634 5636 5637 5638 5639 5640 5642 5643 5644 5646 5647 5648 5650 5651 5652 5653 5654 5655 5655 5656 5657 5657 5658 5658 5658 5658 5658 5658 5658 5658 5658 5657 5657 5657 5656 5656 5655 5655 5654 5653 5653 5652 5652 5652 5652 5651 5651 5650 5650 5650 5650 5650 5650 5650 5650 5650 5651 5651 5651 5651 5651 5651 5651 5650 5651 5651 5651 5651 5651 5652 5652 5652 5652 5653 5652 5652 5654 5655 5656 5656 5656 5656
5626 5627 5629 5631 5633 5635 5637 5637 5638 5639 5641 5642 5644 5645 5646 5647 5649 5650 5651 5652 5653 5654 5654 5655 5656 5656 5656 5656 5656 5657 5657 5657 5656 5656 5656 5655 5655 5654 5654 5653 5652 5652 5651 5650 5650 5649 5649 5648 5648 5648 5647 5646 5646 5646 5645 5645 5646 5646 5646 5646 5645 5646 5646 5646 5647 5647 5646 5646 5646 5646 5646 5646 5646 5647 5647 5648 5648 5649 5649 5649 5650 5651 5652 5652 5652 5652
5626 5627 5629 5631 5633 5634 5636 5637 5638 5639 5641 5642 5643 5645 5646 5647 5648 5649 5650 5651 5652 5653 5653 5654 5655 5655 5655 5655 5655 5655 5655 5655 5655 5654 5654 5653 5652 5652 5651 5650 5649 5648 5648 5647 5646 5646 5645 5645 5644 5644 5643 5642 5642 5642 5642 5641 5641 5641 5641 5641 5641 5641 5641 5641 5642 5642 5641 5641 5642 5642 5642 5642 5641 5642 5643 5643 5644 5644 5645 5645 5645 5646 5647 5648 5649 5649
5626 5627 5629 5631 5632 5634 5636 5637 5637 5638 5640 5642 5644 5645 5646 5647 5648 5649 5650 5651 5651 5652 5653 5654 5654 5655 5655 5654 5654 5654 5654 5653 5653 5653 5652 5651 5650 5649 5648 5647 5646 5645 5644 5643 5642 5642 5641 5641 5640 5640 5639 5638 5638 5638 5637 5637 5637 5637 5636 5636 5636 5636 5636 5636 5637 5637 5636 5636 5636 5637 5637 5637 5637 5637 5638 5639 5639 5640 5641 5641 5641 5641 5642 5643 5644 5645